Lid_Strength_Index
-1 1 3 5 9 10 12 11 9 10 9 6 5 7 8 7 9 11 1 0 -0 -0 -1 -1 -1 -2 -2 -2 -2 -2 -2 -2 -2 -2 -2 -2 -2 -2 -2 -2 -3 -2 -2 -2 -2 -2 -2 -2 -2
1 2 4 8 11 13 12 9 9 9 7 6 6 6 7 8 5 4 3 0 -0 -1 -1 -1 -1 -1 -2 -2 -2 -2 -2 -2 -2 -2 -2 -2 -2 -2 -2 -2 -3 -2 -2 -2 -2 -2 -2 -2 -2
1 4 6 10 12 13 12 9 9 7 6 7 7 5 6 7 4 3 1 -0 -1 -1 -1 -1 -1 -1 -2 -2 -2 -2 -2 -2 -2 -2 -2 -2 -2 -2 -2 -2 -2 -2 -2 -2 -2 -2 -2 -2 -2
4 5 7 11 12 11 11 8 7 7 7 6 6 8 5 2 3 1 0 -0 -0 -0 -1 -1 -1 -2 -2 -2 -2 -2 -2 -2 -2 -2 -2 -2 -2 -2 -2 -3 -3 -3 -2 -2 -2 -2 -2 -2 -2
5 7 11 12 11 11 10 8 7 8 7 6 6 8 7 3 2 0 0 -0 0 -0 -1 -1 -1 -1 -2 -2 -2 -2 -2 -2 -2 -2 -2 -2 -2 -2 -2 -2 -2 -2 -2 -2 -2 -2 -2 -2 -2
7 8 12 13 11 9 9 7 8 7 7 6 6 7 6 2 2 1 0 0 -0 -0 -1 -1 0 -0 -1 -2 -2 -2 -2 -2 -2 -2 -2 -2 -2 -2 -2 -2 -2 -2 -2 -2 -2 -2 -2 -2 -2
7 9 12 12 12 10 8 7 8 7 7 7 5 7 5 4 2 1 0 -0 -0 0 -0 -1 -1 -0 0 -1 -1 -2 -2 -2 -2 -2 -3 -2 -2 -2 -2 -2 -2 -2 -2 -2 -2 -1 -1 -1 -1
7 8 12 12 12 11 8 7 8 7 7 6 4 7 6 4 1 1 0 0 -0 0 0 -1 -1 -1 -1 -1 0 -0 -1 -2 -2 -1 -2 -1 -1 -1 -2 -1 -2 -2 -2 -2 -2 -1 -1 -1 -1
5 11 13 12 11 10 8 8 7 6 7 6 6 5 4 2 1 2 2 1 1 1 0 0 -0 -1 -1 -1 -0 1 0 -1 -1 -0 0 0 -1 -1 -1 -1 -2 -2 -2 -2 -1 -1 -1 -2 -0
8 11 11 8 8 9 8 8 8 8 7 7 6 4 3 2 3 3 3 3 2 2 1 1 0 -0 -0 -1 -1 -1 -1 -1 -1 -1 -1 -0 -1 -1 -1 0 -0 -1 -1 -2 -2 -1 -1 -1 -0
8 11 8 8 7 7 7 8 7 8 9 7 7 5 4 3 3 3 3 3 2 1 1 1 0 1 -0 -1 -0 -1 -1 -1 -1 -1 -1 -0 -0 -0 -0 -1 -1 -1 0 -1 -1 -1 -1 -1 -0
10 8 8 7 7 7 8 7 7 8 7 7 6 4 4 4 4 4 3 3 2 2 1 1 1 1 0 -0 -0 -0 -0 -0 -0 -1 -0 -0 0 0 0 0 0 0 -1 -1 -1 -1 -1 -0 0
10 8 7 7 7 7 7 8 8 7 6 6 5 5 4 4 4 3 2 2 2 2 1 1 1 1 1 0 0 0 0 0 -0 -0 0 0 0 1 1 1 0 0 0 0 0 0 0 0 1
8 8 8 7 8 7 8 8 7 6 5 5 6 5 5 4 4 3 3 3 2 2 1 1 1 1 1 1 0 0 -0 0 1 1 1 1 1 1 1 1 1 1 0 0 0 1 1 1 2
7 10 9 8 8 8 7 9 10 6 5 6 5 5 5 5 3 3 3 3 2 2 1 1 1 1 1 1 1 1 0 -0 1 1 1 2 2 1 1 1 2 1 1 1 1 1 1 2 2
10 11 14 10 8 8 8 12 9 6 6 7 6 5 5 5 4 3 2 2 1 1 2 1 1 0 0 1 1 1 1 0 1 1 1 2 2 2 2 2 1 1 1 2 2 2 2 2 2
12 17 14 12 8 9 9 12 9 8 7 7 6 6 6 6 6 5 4 4 2 1 1 1 0 1 0 0 1 1 1 1 1 1 1 1 2 2 3 3 2 1 1 2 2 2 3 2 2
15 15 14 14 11 10 11 11 9 9 8 8 8 8 8 7 6 5 5 4 3 2 1 1 1 0 0 0 0 1 1 2 1 1 1 1 1 2 2 2 3 3 3 2 2 2 2 2 2
14 14 14 13 10 11 11 11 9 9 10 10 9 9 8 7 6 6 5 5 5 4 2 1 1 1 1 1 1 2 2 2 2 2 2 1 1 1 2 2 2 3 3 3 3 3 2 2 3
13 15 15 12 10 10 12 12 10 10 10 9 8 8 9 9 8 6 6 6 6 5 3 1 1 1 1 1 1 1 1 1 2 2 2 2 2 1 1 2 2 2 3 3 3 4 4 4 4
13 13 14 15 12 12 13 14 13 11 10 10 9 9 9 9 8 7 7 6 6 6 5 4 1 1 1 0 1 1 2 3 2 2 2 2 2 2 2 2 2 2 2 3 3 3 4 4 5
15 11 12 13 14 17 13 20 16 15 13 11 10 10 9 8 8 7 7 7 7 6 6 5 3 1 1 0 1 1 2 3 2 2 2 2 2 2 2 2 2 2 2 2 2 3 3 4 4
14 10 11 12 14 15 15 17 17 14 14 12 10 10 9 9 8 8 8 7 7 6 5 5 2 1 1 1 1 1 2 1 1 2 2 3 3 2 2 2 2 2 2 2 2 3 3 3 3
10 12 12 13 14 18 16 16 18 16 14 12 10 9 9 9 8 9 9 9 9 7 4 2 1 1 1 1 1 1 2 2 2 2 3 3 3 3 3 3 2 2 2 2 3 3 3 3 3
11 14 20 19 19 20 16 17 16 15 14 12 11 10 10 9 10 10 10 10 9 8 7 6 5 5 2 2 2 2 2 2 2 2 2 3 3 3 3 3 3 3 3 2 2 3 3 3 4
12 13 19 24 22 20 16 18 16 13 11 11 10 10 9 10 10 10 10 10 10 10 9 9 9 9 9 8 8 6 4 2 1 1 2 2 2 1 1 2 2 2 2 3 3 3 4 3 3
13 15 12 16 17 19 17 16 12 12 11 10 10 10 10 11 11 11 11 11 11 11 11 10 10 10 10 9 9 9 8 8 8 8 7 7 6 5 2 1 1 2 2 2 2 3 3 3 4
11 9 16 15 21 22 18 17 16 15 12 12 11 10 10 12 12 12 12 12 11 11 11 11 11 11 10 10 10 10 10 9 9 9 9 8 8 7 7 6 4 1 0 1 1 2 2 2 3
13 14 13 13 15 19 20 18 14 12 11 11 11 10 11 12 12 12 12 12 12 12 12 12 12 12 12 10 10 10 10 10 9 10 9 9 8 8 8 7 6 5 4 1 1 1 1 2 2
10 12 12 16 18 15 16 17 13 12 11 10 10 11 12 12 13 13 13 13 14 13 13 13 13 14 13 12 11 11 11 10 10 10 10 9 9 9 9 8 7 7 6 5 4 1 1 1 2